Location: Unspecified
(0.0000°N, 0.0000°E)
Time: 23:26:13
(UTC+00:00)

USA 238 DEB - Visible Passes

Search period start: 13 October 2019 00:00
Search period end: 23 October 2019 00:00
Orbit: 1027 x 1185 km, 63.4° (Epoch: 07 October)

Date Brightness Start Highest point End Pass type
(mag) Time Alt. Az. Time Alt. Az. Time Alt. Az.
13 Oct 4.9 19:13:27 10° SW 19:19:31 38° WNW 19:25:36 10° N visible
14 Oct 6.4 05:01:51 10° NNE 05:06:22 17° ENE 05:10:54 10° ESE visible
14 Oct 3.9 18:28:12 10° SSW 18:34:49 74° WNW 18:41:27 10° NNE visible
15 Oct 6.2 19:38:12 10° W 19:40:49 13° WNW 19:43:28 10° NW visible
16 Oct 5.1 05:20:39 10° N 05:27:42 46° ENE 05:34:46 10° SE visible
16 Oct 5.7 18:50:43 10° WSW 18:56:03 26° WNW 19:01:24 10° NNW visible
17 Oct 6.0 04:37:05 10° NNE 04:42:57 25° ENE 04:48:50 10° ESE visible
17 Oct 4.6 18:04:58 10° SW 18:11:20 50° WNW 18:17:43 10° N visible
18 Oct 6.5 03:55:08 10° NE 03:58:08 13° ENE 04:01:09 10° E visible
19 Oct 4.4 04:56:51 10° NNW 05:04:13 66° ENE 05:11:37 10° SSE visible
19 Oct 6.1 18:28:31 10° WSW 18:32:36 17° WNW 18:36:42 10° NNW visible
20 Oct 5.3 04:12:49 10° N 04:19:30 36° ENE 04:26:12 10° SE visible
21 Oct 6.1 03:29:40 10° NNE 03:34:44 20° ENE 03:39:48 10° ESE visible
21 Oct 4.2 05:18:20 10° NW 05:25:28 50° WSW 05:32:38 10° S visible
22 Oct 3.9 04:33:17 10° NNW 04:40:45 89° WSW 04:48:15 10° SSE visible
22 Oct 6.6 18:08:01 10° WNW 18:09:12 10° WNW 18:10:22 10° NW visible
